iso_date,Year,Hour,Min,DOY,POS_DOY,Lat,Lon,BP,Ts,Ta,has_bp,has_ts,has_ta,BuoyID,Buoy_Type,Buoy_Owner,Logistics,Hemisphere
2021-06-07T15:00:00Z,2021,15,0,158.625,158.625,62.389,-19.069,1004.1,9.5,-999.0,yes,yes,no,300234067976240,BD2GI,AOML,SKAGAFOSS,North
2021-06-07T16:00:02Z,2021,16,0,158.6667,158.6667,62.388,-19.081,1003.8,9.55,-999.0,yes,yes,no,300234067976240,BD2GI,AOML,SKAGAFOSS,North
2021-06-07T16:59:57Z,2021,17,0,158.7083,158.7083,62.386,-19.092,1003.8,9.57,-999.0,yes,yes,no,300234067976240,BD2GI,AOML,SKAGAFOSS,North
2021-06-07T18:00:00Z,2021,18,0,158.75,158.75,62.383,-19.105,1004.0,9.55,-999.0,yes,yes,no,300234067976240,BD2GI,AOML,SKAGAFOSS,North
2021-06-07T19:00:02Z,2021,19,0,158.7917,158.7917,62.381,-19.117,1004.4,9.5,-999.0,yes,yes,no,300234067976240,BD2GI,AOML,SKAGAFOSS,North
2021-06-07T21:00:00Z,2021,21,0,158.875,158.875,62.379,-19.137,1005.1,9.33,-999.0,yes,yes,no,300234067976240,BD2GI,AOML,SKAGAFOSS,North
2021-06-07T22:00:02Z,2021,22,0,158.9167,158.9167,62.378,-19.147,1005.6,9.28,-999.0,yes,yes,no,300234067976240,BD2GI,AOML,SKAGAFOSS,North
2021-06-07T22:59:57Z,2021,23,0,158.9583,158.9583,62.378,-19.158,1006.3,9.21,-999.0,yes,yes,no,300234067976240,BD2GI,AOML,SKAGAFOSS,North
2021-06-08T00:00:00Z,2021,0,0,159.0,159.0,62.378,-19.171,1006.7,9.2,-999.0,yes,yes,no,300234067976240,BD2GI,AOML,SKAGAFOSS,North
2021-06-08T01:00:02Z,2021,1,0,159.0417,159.0417,62.379,-19.185,1006.9,9.14,-999.0,yes,yes,no,300234067976240,BD2GI,AOML,SKAGAFOSS,North
2021-06-08T01:59:57Z,2021,2,0,159.0833,159.0833,62.38,-19.192,1007.1,9.13,-999.0,yes,yes,no,300234067976240,BD2GI,AOML,SKAGAFOSS,North
2021-06-08T03:00:00Z,2021,3,0,159.125,159.125,62.38,-19.202,1007.1,9.1,-999.0,yes,yes,no,300234067976240,BD2GI,AOML,SKAGAFOSS,North
2021-06-08T04:00:02Z,2021,4,0,159.1667,159.1667,62.38,-19.212,1007.1,9.08,-999.0,yes,yes,no,300234067976240,BD2GI,AOML,SKAGAFOSS,North
2021-06-08T04:59:57Z,2021,5,0,159.2083,159.2083,62.381,-19.223,1007.2,9.11,-999.0,yes,yes,no,300234067976240,BD2GI,AOML,SKAGAFOSS,North
2021-06-08T06:00:00Z,2021,6,0,159.25,159.25,62.381,-19.233,1007.5,9.12,-999.0,yes,yes,no,300234067976240,BD2GI,AOML,SKAGAFOSS,North
2021-06-08T07:00:02Z,2021,7,0,159.2917,159.2917,62.381,-19.241,1007.7,9.12,-999.0,yes,yes,no,300234067976240,BD2GI,AOML,SKAGAFOSS,North
2021-06-08T07:59:57Z,2021,8,0,159.3333,159.3333,62.381,-19.249,1007.9,9.19,-999.0,yes,yes,no,300234067976240,BD2GI,AOML,SKAGAFOSS,North
2021-06-08T09:00:00Z,2021,9,0,159.375,159.375,62.38,-19.257,1007.9,9.35,-999.0,yes,yes,no,300234067976240,BD2GI,AOML,SKAGAFOSS,North
2021-06-08T10:00:02Z,2021,10,0,159.4167,159.4167,62.38,-19.264,1007.9,9.47,-999.0,yes,yes,no,300234067976240,BD2GI,AOML,SKAGAFOSS,North
2021-06-08T10:59:57Z,2021,11,0,159.4583,159.4583,62.38,-19.273,1007.8,9.61,-999.0,yes,yes,no,300234067976240,BD2GI,AOML,SKAGAFOSS,North
2021-06-08T12:00:00Z,2021,12,0,159.5,159.5,62.382,-19.285,1007.6,9.61,-999.0,yes,yes,no,300234067976240,BD2GI,AOML,SKAGAFOSS,North
2021-06-08T13:00:02Z,2021,13,0,159.5417,159.5417,62.383,-19.298,1007.1,9.6,-999.0,yes,yes,no,300234067976240,BD2GI,AOML,SKAGAFOSS,North
2021-06-08T13:59:57Z,2021,14,0,159.5833,159.5833,62.386,-19.313,1006.8,9.75,-999.0,yes,yes,no,300234067976240,BD2GI,AOML,SKAGAFOSS,North
2021-06-08T15:00:00Z,2021,15,0,159.625,159.625,62.388,-19.328,1006.3,9.72,-999.0,yes,yes,no,300234067976240,BD2GI,AOML,SKAGAFOSS,North
2021-06-08T16:00:02Z,2021,16,0,159.6667,159.6667,62.39,-19.343,1005.7,9.57,-999.0,yes,yes,no,300234067976240,BD2GI,AOML,SKAGAFOSS,North
2021-06-08T16:59:57Z,2021,17,0,159.7083,159.7083,62.392,-19.356,1005.0,9.41,-999.0,yes,yes,no,300234067976240,BD2GI,AOML,SKAGAFOSS,North
2021-06-08T18:00:00Z,2021,18,0,159.75,159.75,62.394,-19.368,1004.3,9.39,-999.0,yes,yes,no,300234067976240,BD2GI,AOML,SKAGAFOSS,North
2021-06-08T19:00:02Z,2021,19,0,159.7917,159.7917,62.397,-19.378,1003.6,9.36,-999.0,yes,yes,no,300234067976240,BD2GI,AOML,SKAGAFOSS,North
2021-06-08T19:59:57Z,2021,20,0,159.8333,159.8333,62.398,-19.385,1002.9,9.37,-999.0,yes,yes,no,300234067976240,BD2GI,AOML,SKAGAFOSS,North
2021-06-08T21:00:00Z,2021,21,0,159.875,159.875,62.399,-19.391,1002.1,9.29,-999.0,yes,yes,no,300234067976240,BD2GI,AOML,SKAGAFOSS,North
2021-06-08T22:00:02Z,2021,22,0,159.9167,159.9167,62.4,-19.399,1001.8,9.29,-999.0,yes,yes,no,300234067976240,BD2GI,AOML,SKAGAFOSS,North
2021-06-08T22:59:57Z,2021,23,0,159.9583,159.9583,62.401,-19.411,1001.0,9.25,-999.0,yes,yes,no,300234067976240,BD2GI,AOML,SKAGAFOSS,North
2021-06-09T00:00:00Z,2021,0,0,160.0,160.0,62.403,-19.422,1000.4,9.23,-999.0,yes,yes,no,300234067976240,BD2GI,AOML,SKAGAFOSS,North
2021-06-09T01:00:02Z,2021,1,0,160.0417,160.0417,62.405,-19.433,999.6,9.2,-999.0,yes,yes,no,300234067976240,BD2GI,AOML,SKAGAFOSS,North
2021-06-09T01:59:57Z,2021,2,0,160.0833,160.0833,62.409,-19.447,999.0,9.18,-999.0,yes,yes,no,300234067976240,BD2GI,AOML,SKAGAFOSS,North
2021-06-09T03:00:00Z,2021,3,0,160.125,160.125,62.414,-19.458,998.3,9.17,-999.0,yes,yes,no,300234067976240,BD2GI,AOML,SKAGAFOSS,North
2021-06-09T04:00:02Z,2021,4,0,160.1667,160.1667,62.418,-19.463,997.7,9.17,-999.0,yes,yes,no,300234067976240,BD2GI,AOML,SKAGAFOSS,North
2021-06-09T04:59:57Z,2021,5,0,160.2083,160.2083,62.419,-19.468,997.1,9.18,-999.0,yes,yes,no,300234067976240,BD2GI,AOML,SKAGAFOSS,North
2021-06-09T06:00:00Z,2021,6,0,160.25,160.25,62.419,-19.473,996.7,9.18,-999.0,yes,yes,no,300234067976240,BD2GI,AOML,SKAGAFOSS,North
2021-06-09T07:00:02Z,2021,7,0,160.2917,160.2917,62.419,-19.481,996.6,9.18,-999.0,yes,yes,no,300234067976240,BD2GI,AOML,SKAGAFOSS,North
2021-06-09T07:59:57Z,2021,8,0,160.3333,160.3333,62.42,-19.491,996.4,9.18,-999.0,yes,yes,no,300234067976240,BD2GI,AOML,SKAGAFOSS,North
2021-06-09T09:00:00Z,2021,9,0,160.375,160.375,62.421,-19.5,996.1,9.19,-999.0,yes,yes,no,300234067976240,BD2GI,AOML,SKAGAFOSS,North
2021-06-09T10:00:02Z,2021,10,0,160.4167,160.4167,62.424,-19.509,996.0,9.21,-999.0,yes,yes,no,300234067976240,BD2GI,AOML,SKAGAFOSS,North
2021-06-09T10:59:57Z,2021,11,0,160.4583,160.4583,62.427,-19.516,996.1,9.23,-999.0,yes,yes,no,300234067976240,BD2GI,AOML,SKAGAFOSS,North
2021-06-09T12:00:00Z,2021,12,0,160.5,160.5,62.431,-19.524,996.1,9.27,-999.0,yes,yes,no,300234067976240,BD2GI,AOML,SKAGAFOSS,North
2021-06-09T13:00:02Z,2021,13,0,160.5417,160.5417,62.435,-19.534,996.3,9.34,-999.0,yes,yes,no,300234067976240,BD2GI,AOML,SKAGAFOSS,North
2021-06-09T13:59:57Z,2021,14,0,160.5833,160.5833,62.438,-19.543,995.7,9.45,-999.0,yes,yes,no,300234067976240,BD2GI,AOML,SKAGAFOSS,North
2021-06-09T15:00:00Z,2021,15,0,160.625,160.625,62.44,-19.552,995.1,9.47,-999.0,yes,yes,no,300234067976240,BD2GI,AOML,SKAGAFOSS,North
2021-06-09T16:00:02Z,2021,16,0,160.6667,160.6667,62.441,-19.562,994.7,9.48,-999.0,yes,yes,no,300234067976240,BD2GI,AOML,SKAGAFOSS,North
2021-06-09T16:59:57Z,2021,17,0,160.7083,160.7083,62.442,-19.576,994.1,9.48,-999.0,yes,yes,no,300234067976240,BD2GI,AOML,SKAGAFOSS,North
2021-06-09T18:00:00Z,2021,18,0,160.75,160.75,62.444,-19.591,993.3,9.49,-999.0,yes,yes,no,300234067976240,BD2GI,AOML,SKAGAFOSS,North
2021-06-09T19:00:02Z,2021,19,0,160.7917,160.7917,62.447,-19.607,992.5,9.46,-999.0,yes,yes,no,300234067976240,BD2GI,AOML,SKAGAFOSS,North
2021-06-09T19:59:57Z,2021,20,0,160.8333,160.8333,62.452,-19.619,991.5,9.38,-999.0,yes,yes,no,300234067976240,BD2GI,AOML,SKAGAFOSS,North
2021-06-09T21:00:00Z,2021,21,0,160.875,160.875,62.457,-19.625,990.0,9.38,-999.0,yes,yes,no,300234067976240,BD2GI,AOML,SKAGAFOSS,North
2021-06-09T22:00:02Z,2021,22,0,160.9167,160.9167,62.461,-19.631,988.8,9.39,-999.0,yes,yes,no,300234067976240,BD2GI,AOML,SKAGAFOSS,North
2021-06-09T22:59:57Z,2021,23,0,160.9583,160.9583,62.464,-19.64,987.1,9.34,-999.0,yes,yes,no,300234067976240,BD2GI,AOML,SKAGAFOSS,North
2021-06-10T00:00:00Z,2021,0,0,161.0,161.0,62.467,-19.648,985.5,9.29,-999.0,yes,yes,no,300234067976240,BD2GI,AOML,SKAGAFOSS,North
2021-06-10T01:00:02Z,2021,1,0,161.0417,161.0417,62.471,-19.661,984.2,9.21,-999.0,yes,yes,no,300234067976240,BD2GI,AOML,SKAGAFOSS,North
2021-06-10T01:59:57Z,2021,2,0,161.0833,161.0833,62.476,-19.673,984.1,9.16,-999.0,yes,yes,no,300234067976240,BD2GI,AOML,SKAGAFOSS,North
2021-06-10T03:00:00Z,2021,3,0,161.125,161.125,62.482,-19.68,983.6,9.16,-999.0,yes,yes,no,300234067976240,BD2GI,AOML,SKAGAFOSS,North
2021-06-10T04:00:02Z,2021,4,0,161.1667,161.1667,62.487,-19.682,983.1,9.14,-999.0,yes,yes,no,300234067976240,BD2GI,AOML,SKAGAFOSS,North
2021-06-10T04:59:57Z,2021,5,0,161.2083,161.2083,62.491,-19.683,982.4,9.14,-999.0,yes,yes,no,300234067976240,BD2GI,AOML,SKAGAFOSS,North
2021-06-10T06:00:00Z,2021,6,0,161.25,161.25,62.494,-19.687,982.0,9.15,-999.0,yes,yes,no,300234067976240,BD2GI,AOML,SKAGAFOSS,North
2021-06-10T07:00:02Z,2021,7,0,161.2917,161.2917,62.496,-19.691,981.6,9.15,-999.0,yes,yes,no,300234067976240,BD2GI,AOML,SKAGAFOSS,North
2021-06-10T07:59:57Z,2021,8,0,161.3333,161.3333,62.497,-19.694,981.6,9.17,-999.0,yes,yes,no,300234067976240,BD2GI,AOML,SKAGAFOSS,North
2021-06-10T09:00:00Z,2021,9,0,161.375,161.375,62.498,-19.699,981.9,9.17,-999.0,yes,yes,no,300234067976240,BD2GI,AOML,SKAGAFOSS,North
2021-06-10T10:00:02Z,2021,10,0,161.4167,161.4167,62.499,-19.704,981.5,9.18,-999.0,yes,yes,no,300234067976240,BD2GI,AOML,SKAGAFOSS,North
2021-06-10T10:59:57Z,2021,11,0,161.4583,161.4583,62.499,-19.708,980.8,9.19,-999.0,yes,yes,no,300234067976240,BD2GI,AOML,SKAGAFOSS,North
2021-06-10T12:00:00Z,2021,12,0,161.5,161.5,62.502,-19.715,981.0,9.19,-999.0,yes,yes,no,300234067976240,BD2GI,AOML,SKAGAFOSS,North
2021-06-10T13:00:02Z,2021,13,0,161.5417,161.5417,62.506,-19.722,981.2,9.19,-999.0,yes,yes,no,300234067976240,BD2GI,AOML,SKAGAFOSS,North
2021-06-10T13:59:57Z,2021,14,0,161.5833,161.5833,62.511,-19.726,981.7,9.22,-999.0,yes,yes,no,300234067976240,BD2GI,AOML,SKAGAFOSS,North
2021-06-10T15:00:00Z,2021,15,0,161.625,161.625,62.516,-19.73,981.8,9.23,-999.0,yes,yes,no,300234067976240,BD2GI,AOML,SKAGAFOSS,North
2021-06-10T16:00:02Z,2021,16,0,161.6667,161.6667,62.519,-19.733,982.0,9.25,-999.0,yes,yes,no,300234067976240,BD2GI,AOML,SKAGAFOSS,North
2021-06-10T16:59:57Z,2021,17,0,161.7083,161.7083,62.521,-19.736,982.4,9.26,-999.0,yes,yes,no,300234067976240,BD2GI,AOML,SKAGAFOSS,North
2021-06-10T18:00:00Z,2021,18,0,161.75,161.75,62.522,-19.739,982.9,9.26,-999.0,yes,yes,no,300234067976240,BD2GI,AOML,SKAGAFOSS,North
2021-06-10T19:00:02Z,2021,19,0,161.7917,161.7917,62.521,-19.744,983.4,9.25,-999.0,yes,yes,no,300234067976240,BD2GI,AOML,SKAGAFOSS,North
2021-06-10T19:59:57Z,2021,20,0,161.8333,161.8333,62.519,-19.749,984.1,9.24,-999.0,yes,yes,no,300234067976240,BD2GI,AOML,SKAGAFOSS,North
2021-06-10T21:00:00Z,2021,21,0,161.875,161.875,62.517,-19.756,984.8,9.23,-999.0,yes,yes,no,300234067976240,BD2GI,AOML,SKAGAFOSS,North
2021-06-10T22:00:02Z,2021,22,0,161.9167,161.9167,62.514,-19.765,985.5,9.22,-999.0,yes,yes,no,300234067976240,BD2GI,AOML,SKAGAFOSS,North
2021-06-10T22:59:57Z,2021,23,0,161.9583,161.9583,62.512,-19.775,986.2,9.21,-999.0,yes,yes,no,300234067976240,BD2GI,AOML,SKAGAFOSS,North
2021-06-11T00:00:00Z,2021,0,0,162.0,162.0,62.512,-19.787,986.9,9.19,-999.0,yes,yes,no,300234067976240,BD2GI,AOML,SKAGAFOSS,North
2021-06-11T01:00:02Z,2021,1,0,162.0417,162.0417,62.514,-19.8,987.4,9.19,-999.0,yes,yes,no,300234067976240,BD2GI,AOML,SKAGAFOSS,North
2021-06-11T01:59:57Z,2021,2,0,162.0833,162.0833,62.518,-19.812,987.8,9.18,-999.0,yes,yes,no,300234067976240,BD2GI,AOML,SKAGAFOSS,North
2021-06-11T03:00:00Z,2021,3,0,162.125,162.125,62.521,-19.817,988.4,9.17,-999.0,yes,yes,no,300234067976240,BD2GI,AOML,SKAGAFOSS,North
2021-06-11T04:00:02Z,2021,4,0,162.1667,162.1667,62.524,-19.821,988.8,9.17,-999.0,yes,yes,no,300234067976240,BD2GI,AOML,SKAGAFOSS,North
2021-06-11T04:59:57Z,2021,5,0,162.2083,162.2083,62.525,-19.823,989.2,9.16,-999.0,yes,yes,no,300234067976240,BD2GI,AOML,SKAGAFOSS,North
2021-06-11T06:00:00Z,2021,6,0,162.25,162.25,62.525,-19.825,989.8,9.16,-999.0,yes,yes,no,300234067976240,BD2GI,AOML,SKAGAFOSS,North
2021-06-11T07:00:02Z,2021,7,0,162.2917,162.2917,62.522,-19.829,990.4,9.15,-999.0,yes,yes,no,300234067976240,BD2GI,AOML,SKAGAFOSS,North
2021-06-11T07:59:57Z,2021,8,0,162.3333,162.3333,62.518,-19.834,991.2,9.16,-999.0,yes,yes,no,300234067976240,BD2GI,AOML,SKAGAFOSS,North
2021-06-11T09:00:00Z,2021,9,0,162.375,162.375,62.514,-19.842,991.9,9.16,-999.0,yes,yes,no,300234067976240,BD2GI,AOML,SKAGAFOSS,North
2021-06-11T10:00:02Z,2021,10,0,162.4167,162.4167,62.511,-19.85,992.7,9.18,-999.0,yes,yes,no,300234067976240,BD2GI,AOML,SKAGAFOSS,North
2021-06-11T13:00:02Z,2021,13,0,162.5417,162.5417,62.504,-19.875,994.4,9.2,-999.0,yes,yes,no,300234067976240,BD2GI,AOML,SKAGAFOSS,North
2021-06-11T13:59:57Z,2021,14,0,162.5833,162.5833,62.503,-19.883,995.2,9.25,-999.0,yes,yes,no,300234067976240,BD2GI,AOML,SKAGAFOSS,North
2021-06-11T15:00:00Z,2021,15,0,162.625,162.625,62.502,-19.89,996.0,9.25,-999.0,yes,yes,no,300234067976240,BD2GI,AOML,SKAGAFOSS,North
2021-06-11T16:00:02Z,2021,16,0,162.6667,162.6667,62.5,-19.898,996.7,9.26,-999.0,yes,yes,no,300234067976240,BD2GI,AOML,SKAGAFOSS,North
2021-06-11T16:59:57Z,2021,17,0,162.7083,162.7083,62.498,-19.908,997.7,9.3,-999.0,yes,yes,no,300234067976240,BD2GI,AOML,SKAGAFOSS,North
2021-06-11T18:00:00Z,2021,18,0,162.75,162.75,62.495,-19.919,998.7,9.28,-999.0,yes,yes,no,300234067976240,BD2GI,AOML,SKAGAFOSS,North
2021-06-11T19:00:02Z,2021,19,0,162.7917,162.7917,62.492,-19.93,999.9,9.27,-999.0,yes,yes,no,300234067976240,BD2GI,AOML,SKAGAFOSS,North
2021-06-11T19:59:57Z,2021,20,0,162.8333,162.8333,62.487,-19.939,1001.0,9.24,-999.0,yes,yes,no,300234067976240,BD2GI,AOML,SKAGAFOSS,North
2021-06-11T21:00:00Z,2021,21,0,162.875,162.875,62.482,-19.947,1001.8,9.22,-999.0,yes,yes,no,300234067976240,BD2GI,AOML,SKAGAFOSS,North
2021-06-11T22:00:02Z,2021,22,0,162.9167,162.9167,62.477,-19.956,1003.3,9.21,-999.0,yes,yes,no,300234067976240,BD2GI,AOML,SKAGAFOSS,North
2021-06-11T22:59:57Z,2021,23,0,162.9583,162.9583,62.471,-19.963,1004.6,9.19,-999.0,yes,yes,no,300234067976240,BD2GI,AOML,SKAGAFOSS,North
2021-06-12T00:00:00Z,2021,0,0,163.0,163.0,62.464,-19.972,1005.8,9.18,-999.0,yes,yes,no,300234067976240,BD2GI,AOML,SKAGAFOSS,North
2021-06-12T01:00:02Z,2021,1,0,163.0417,163.0417,62.458,-19.986,1007.1,9.16,-999.0,yes,yes,no,300234067976240,BD2GI,AOML,SKAGAFOSS,North
2021-06-12T01:59:57Z,2021,2,0,163.0833,163.0833,62.452,-20.001,1008.3,9.15,-999.0,yes,yes,no,300234067976240,BD2GI,AOML,SKAGAFOSS,North
2021-06-12T03:00:00Z,2021,3,0,163.125,163.125,62.447,-20.017,1009.0,9.14,-999.0,yes,yes,no,300234067976240,BD2GI,AOML,SKAGAFOSS,North
2021-06-12T04:00:02Z,2021,4,0,163.1667,163.1667,62.443,-20.035,1009.3,9.12,-999.0,yes,yes,no,300234067976240,BD2GI,AOML,SKAGAFOSS,North
2021-06-12T04:59:57Z,2021,5,0,163.2083,163.2083,62.439,-20.052,1009.9,9.12,-999.0,yes,yes,no,300234067976240,BD2GI,AOML,SKAGAFOSS,North
2021-06-12T06:00:00Z,2021,6,0,163.25,163.25,62.435,-20.068,1010.0,9.12,-999.0,yes,yes,no,300234067976240,BD2GI,AOML,SKAGAFOSS,North
2021-06-12T07:00:02Z,2021,7,0,163.2917,163.2917,62.431,-20.082,1010.5,9.11,-999.0,yes,yes,no,300234067976240,BD2GI,AOML,SKAGAFOSS,North
2021-06-12T07:59:57Z,2021,8,0,163.3333,163.3333,62.425,-20.095,1010.7,9.12,-999.0,yes,yes,no,300234067976240,BD2GI,AOML,SKAGAFOSS,North
2021-06-12T09:00:00Z,2021,9,0,163.375,163.375,62.42,-20.108,1010.9,9.14,-999.0,yes,yes,no,300234067976240,BD2GI,AOML,SKAGAFOSS,North
2021-06-12T10:00:02Z,2021,10,0,163.4167,163.4167,62.415,-20.121,1010.9,9.17,-999.0,yes,yes,no,300234067976240,BD2GI,AOML,SKAGAFOSS,North
2021-06-12T10:59:57Z,2021,11,0,163.4583,163.4583,62.41,-20.135,1010.7,9.29,-999.0,yes,yes,no,300234067976240,BD2GI,AOML,SKAGAFOSS,North
2021-06-12T12:00:00Z,2021,12,0,163.5,163.5,62.407,-20.147,1010.9,9.33,-999.0,yes,yes,no,300234067976240,BD2GI,AOML,SKAGAFOSS,North
2021-06-12T13:00:02Z,2021,13,0,163.5417,163.5417,62.403,-20.158,1010.5,9.32,-999.0,yes,yes,no,300234067976240,BD2GI,AOML,SKAGAFOSS,North
2021-06-12T13:59:57Z,2021,14,0,163.5833,163.5833,62.399,-20.167,1009.9,9.31,-999.0,yes,yes,no,300234067976240,BD2GI,AOML,SKAGAFOSS,North
2021-06-12T15:00:00Z,2021,15,0,163.625,163.625,62.395,-20.179,1009.0,9.45,-999.0,yes,yes,no,300234067976240,BD2GI,AOML,SKAGAFOSS,North
2021-06-12T16:00:02Z,2021,16,0,163.6667,163.6667,62.389,-20.192,1008.6,9.43,-999.0,yes,yes,no,300234067976240,BD2GI,AOML,SKAGAFOSS,North
2021-06-12T16:59:57Z,2021,17,0,163.7083,163.7083,62.383,-20.208,1007.7,9.42,-999.0,yes,yes,no,300234067976240,BD2GI,AOML,SKAGAFOSS,North
2021-06-12T18:00:00Z,2021,18,0,163.75,163.75,62.376,-20.226,1007.9,9.39,-999.0,yes,yes,no,300234067976240,BD2GI,AOML,SKAGAFOSS,North
2021-06-12T19:00:02Z,2021,19,0,163.7917,163.7917,62.369,-20.247,1006.9,9.35,-999.0,yes,yes,no,300234067976240,BD2GI,AOML,SKAGAFOSS,North
2021-06-12T19:59:57Z,2021,20,0,163.8333,163.8333,62.362,-20.271,1006.4,9.32,-999.0,yes,yes,no,300234067976240,BD2GI,AOML,SKAGAFOSS,North
2021-06-12T21:00:00Z,2021,21,0,163.875,163.875,62.357,-20.294,1005.5,9.29,-999.0,yes,yes,no,300234067976240,BD2GI,AOML,SKAGAFOSS,North
2021-06-12T22:00:02Z,2021,22,0,163.9167,163.9167,62.352,-20.318,1004.2,9.27,-999.0,yes,yes,no,300234067976240,BD2GI,AOML,SKAGAFOSS,North
2021-06-12T22:59:57Z,2021,23,0,163.9583,163.9583,62.349,-20.341,1003.4,9.22,-999.0,yes,yes,no,300234067976240,BD2GI,AOML,SKAGAFOSS,North
2021-06-13T00:00:00Z,2021,0,0,164.0,164.0,62.347,-20.365,1002.3,9.2,-999.0,yes,yes,no,300234067976240,BD2GI,AOML,SKAGAFOSS,North
2021-06-13T01:00:02Z,2021,1,0,164.0417,164.0417,62.345,-20.384,1000.8,9.19,-999.0,yes,yes,no,300234067976240,BD2GI,AOML,SKAGAFOSS,North
2021-06-13T01:59:57Z,2021,2,0,164.0833,164.0833,62.345,-20.403,1000.1,9.17,-999.0,yes,yes,no,300234067976240,BD2GI,AOML,SKAGAFOSS,North
2021-06-13T03:00:00Z,2021,3,0,164.125,164.125,62.345,-20.42,999.1,9.17,-999.0,yes,yes,no,300234067976240,BD2GI,AOML,SKAGAFOSS,North
2021-06-13T04:00:02Z,2021,4,0,164.1667,164.1667,62.344,-20.433,998.4,9.17,-999.0,yes,yes,no,300234067976240,BD2GI,AOML,SKAGAFOSS,North
2021-06-13T04:59:57Z,2021,5,0,164.2083,164.2083,62.342,-20.445,997.7,9.16,-999.0,yes,yes,no,300234067976240,BD2GI,AOML,SKAGAFOSS,North
2021-06-13T06:00:00Z,2021,6,0,164.25,164.25,62.338,-20.456,997.0,9.16,-999.0,yes,yes,no,300234067976240,BD2GI,AOML,SKAGAFOSS,North
2021-06-13T07:00:02Z,2021,7,0,164.2917,164.2917,62.334,-20.467,996.8,9.17,-999.0,yes,yes,no,300234067976240,BD2GI,AOML,SKAGAFOSS,North
2021-06-13T07:59:57Z,2021,8,0,164.3333,164.3333,62.327,-20.479,996.3,9.17,-999.0,yes,yes,no,300234067976240,BD2GI,AOML,SKAGAFOSS,North
2021-06-13T09:00:00Z,2021,9,0,164.375,164.375,62.32,-20.493,996.1,9.17,-999.0,yes,yes,no,300234067976240,BD2GI,AOML,SKAGAFOSS,North
2021-06-13T10:00:02Z,2021,10,0,164.4167,164.4167,62.31,-20.51,995.6,9.18,-999.0,yes,yes,no,300234067976240,BD2GI,AOML,SKAGAFOSS,North
2021-06-13T10:59:57Z,2021,11,0,164.4583,164.4583,62.302,-20.529,995.2,9.19,-999.0,yes,yes,no,300234067976240,BD2GI,AOML,SKAGAFOSS,North
2021-06-13T12:00:00Z,2021,12,0,164.5,164.5,62.295,-20.548,995.0,9.22,-999.0,yes,yes,no,300234067976240,BD2GI,AOML,SKAGAFOSS,North
2021-06-13T13:00:02Z,2021,13,0,164.5417,164.5417,62.29,-20.572,994.9,9.23,-999.0,yes,yes,no,300234067976240,BD2GI,AOML,SKAGAFOSS,North
2021-06-13T13:59:57Z,2021,14,0,164.5833,164.5833,62.286,-20.593,994.9,9.25,-999.0,yes,yes,no,300234067976240,BD2GI,AOML,SKAGAFOSS,North
2021-06-13T15:00:00Z,2021,15,0,164.625,164.625,62.282,-20.616,994.8,9.26,-999.0,yes,yes,no,300234067976240,BD2GI,AOML,SKAGAFOSS,North
2021-06-13T16:00:02Z,2021,16,0,164.6667,164.6667,62.279,-20.639,994.6,9.28,-999.0,yes,yes,no,300234067976240,BD2GI,AOML,SKAGAFOSS,North
2021-06-13T16:59:57Z,2021,17,0,164.7083,164.7083,62.278,-20.664,995.0,9.34,-999.0,yes,yes,no,300234067976240,BD2GI,AOML,SKAGAFOSS,North
2021-06-13T18:00:00Z,2021,18,0,164.75,164.75,62.277,-20.686,995.6,9.5,-999.0,yes,yes,no,300234067976240,BD2GI,AOML,SKAGAFOSS,North
2021-06-13T19:00:02Z,2021,19,0,164.7917,164.7917,62.278,-20.704,996.1,9.5,-999.0,yes,yes,no,300234067976240,BD2GI,AOML,SKAGAFOSS,North
2021-06-13T19:59:57Z,2021,20,0,164.8333,164.8333,62.275,-20.722,996.9,9.41,-999.0,yes,yes,no,300234067976240,BD2GI,AOML,SKAGAFOSS,North
2021-06-13T21:00:00Z,2021,21,0,164.875,164.875,62.272,-20.741,997.9,9.4,-999.0,yes,yes,no,300234067976240,BD2GI,AOML,SKAGAFOSS,North
2021-06-13T22:00:02Z,2021,22,0,164.9167,164.9167,62.268,-20.754,998.9,9.31,-999.0,yes,yes,no,300234067976240,BD2GI,AOML,SKAGAFOSS,North
2021-06-13T22:59:57Z,2021,23,0,164.9583,164.9583,62.263,-20.767,1000.1,9.28,-999.0,yes,yes,no,300234067976240,BD2GI,AOML,SKAGAFOSS,North
2021-06-14T00:00:00Z,2021,0,0,165.0,165.0,62.257,-20.777,1001.3,9.28,-999.0,yes,yes,no,300234067976240,BD2GI,AOML,SKAGAFOSS,North
2021-06-14T01:00:02Z,2021,1,0,165.0417,165.0417,62.251,-20.792,1002.4,9.26,-999.0,yes,yes,no,300234067976240,BD2GI,AOML,SKAGAFOSS,North
2021-06-14T01:59:57Z,2021,2,0,165.0833,165.0833,62.245,-20.808,1003.9,9.28,-999.0,yes,yes,no,300234067976240,BD2GI,AOML,SKAGAFOSS,North
2021-06-14T03:00:00Z,2021,3,0,165.125,165.125,62.24,-20.833,1004.7,9.28,-999.0,yes,yes,no,300234067976240,BD2GI,AOML,SKAGAFOSS,North
2021-06-14T04:00:02Z,2021,4,0,165.1667,165.1667,62.238,-20.858,1005.3,9.28,-999.0,yes,yes,no,300234067976240,BD2GI,AOML,SKAGAFOSS,North
2021-06-14T04:59:57Z,2021,5,0,165.2083,165.2083,62.238,-20.883,1005.9,9.27,-999.0,yes,yes,no,300234067976240,BD2GI,AOML,SKAGAFOSS,North
2021-06-14T06:00:00Z,2021,6,0,165.25,165.25,62.239,-20.903,1006.6,9.25,-999.0,yes,yes,no,300234067976240,BD2GI,AOML,SKAGAFOSS,North
2021-06-14T07:00:02Z,2021,7,0,165.2917,165.2917,62.241,-20.919,1007.4,9.25,-999.0,yes,yes,no,300234067976240,BD2GI,AOML,SKAGAFOSS,North
2021-06-14T07:59:57Z,2021,8,0,165.3333,165.3333,62.241,-20.931,1008.3,9.25,-999.0,yes,yes,no,300234067976240,BD2GI,AOML,SKAGAFOSS,North
2021-06-14T09:00:00Z,2021,9,0,165.375,165.375,62.241,-20.942,1009.0,9.25,-999.0,yes,yes,no,300234067976240,BD2GI,AOML,SKAGAFOSS,North
2021-06-14T10:00:02Z,2021,10,0,165.4167,165.4167,62.239,-20.95,1009.7,9.26,-999.0,yes,yes,no,300234067976240,BD2GI,AOML,SKAGAFOSS,North
2021-06-14T10:59:57Z,2021,11,0,165.4583,165.4583,62.235,-20.958,1010.6,9.26,-999.0,yes,yes,no,300234067976240,BD2GI,AOML,SKAGAFOSS,North
2021-06-14T12:00:00Z,2021,12,0,165.5,165.5,62.229,-20.967,1011.4,9.27,-999.0,yes,yes,no,300234067976240,BD2GI,AOML,SKAGAFOSS,North
2021-06-14T13:00:02Z,2021,13,0,165.5417,165.5417,62.222,-20.977,1012.3,9.29,-999.0,yes,yes,no,300234067976240,BD2GI,AOML,SKAGAFOSS,North
2021-06-14T13:59:57Z,2021,14,0,165.5833,165.5833,62.215,-20.988,1012.7,9.29,-999.0,yes,yes,no,300234067976240,BD2GI,AOML,SKAGAFOSS,North
2021-06-14T15:00:00Z,2021,15,0,165.625,165.625,62.209,-21.004,1012.9,9.32,-999.0,yes,yes,no,300234067976240,BD2GI,AOML,SKAGAFOSS,North
2021-06-14T16:00:02Z,2021,16,0,165.6667,165.6667,62.204,-21.023,1013.2,9.36,-999.0,yes,yes,no,300234067976240,BD2GI,AOML,SKAGAFOSS,North
2021-06-14T16:59:57Z,2021,17,0,165.7083,165.7083,62.2,-21.046,1013.2,9.4,-999.0,yes,yes,no,300234067976240,BD2GI,AOML,SKAGAFOSS,North
2021-06-14T18:00:00Z,2021,18,0,165.75,165.75,62.198,-21.069,1013.1,9.4,-999.0,yes,yes,no,300234067976240,BD2GI,AOML,SKAGAFOSS,North
2021-06-14T19:00:02Z,2021,19,0,165.7917,165.7917,62.197,-21.089,1013.0,9.4,-999.0,yes,yes,no,300234067976240,BD2GI,AOML,SKAGAFOSS,North
2021-06-14T19:59:57Z,2021,20,0,165.8333,165.8333,62.198,-21.107,1012.9,9.4,-999.0,yes,yes,no,300234067976240,BD2GI,AOML,SKAGAFOSS,North
2021-06-14T21:00:00Z,2021,21,0,165.875,165.875,62.197,-21.123,1012.6,9.38,-999.0,yes,yes,no,300234067976240,BD2GI,AOML,SKAGAFOSS,North
2021-06-14T22:00:02Z,2021,22,0,165.9167,165.9167,62.197,-21.136,1012.4,9.36,-999.0,yes,yes,no,300234067976240,BD2GI,AOML,SKAGAFOSS,North
2021-06-14T22:59:57Z,2021,23,0,165.9583,165.9583,62.196,-21.146,1012.3,9.31,-999.0,yes,yes,no,300234067976240,BD2GI,AOML,SKAGAFOSS,North
2021-06-15T00:00:00Z,2021,0,0,166.0,166.0,62.193,-21.154,1011.8,9.29,-999.0,yes,yes,no,300234067976240,BD2GI,AOML,SKAGAFOSS,North
2021-06-15T01:00:02Z,2021,1,0,166.0417,166.0417,62.19,-21.159,1011.1,9.29,-999.0,yes,yes,no,300234067976240,BD2GI,AOML,SKAGAFOSS,North
2021-06-15T01:59:57Z,2021,2,0,166.0833,166.0833,62.185,-21.169,1010.2,9.29,-999.0,yes,yes,no,300234067976240,BD2GI,AOML,SKAGAFOSS,North